User: anonymous   Login
Location: Caltech
(34.1382°N, 118.1253°W)
Time: 10:53:43
(UTC-08:00)
Language:

ALOS - Orbit

View from above orbital plane
View from above orbital plane
View from above satellite
View from above satellite

Ground track
Ground track

The orbit data is extracted from the following two-line orbital elements,

1 28931U 06002A   18052.46567422  .00000117  00000-0  31710-4 0  9998
2 28931  97.8258  72.0897 0000685  92.9300 267.1979 14.62459692643898
Epoch (UTC): 21 February 2018 11:10:34
Eccentricity: 0.0000685
inclination: 97.8258°
perigee height: 685 km
apogee height: 686 km
right ascension of ascending node: 72.0897°
argument of perigee: 92.9300°
revolutions per day: 14.62459692
mean anomaly at epoch: 267.1979°
orbit number at epoch: 64389

The dashed part of the orbit path shows where the satellite is in the earth's shadow,  

DLR